Location: Buckland
(65.9785°N, 161.1281°W)
Time: 22:11:15
(UTC+00:00)

PRISM - Pass Details

Date: 19 January 2021
Orbit: 565 x 584 km, 98.2° (Epoch: 06 March)

Event Time Altitude Azimuth Distance (km) Brightness Sun altitude
Rises 16:11:22 0° 24° (NNE) 2,784 ? -22.8°
Reaches altitude 10° 16:13:50 10° 10° (N) 1,885 ? -22.6°
Enters shadow 16:15:14 17° 353° (N) 1,486 ? -22.4°
